Location: *
(23.5860°S, 65.4036°W)
Time: 07:41:35
(UTC+00:00)

CENTAUR R/B - Pass Details

Date: 25 August 2019
Orbit: 780 x 1408 km, 63.4° (Epoch: 17 September)

Event Time Altitude Azimuth Distance (km) Brightness Sun altitude
Rises 23:02:45 0° 3° (N) 4,451 6.0 -13.1°
Reaches altitude 10° 23:06:11 10° 13° (NNE) 3,459 5.3 -13.9°
Maximum altitude 23:13:15 29° 69° (ENE) 2,215 3.9 -15.5°
Enters shadow 23:16:50 21° 108° (ESE) 2,532 4.0 -16.3°
